DeKalb, IL

3:56 PM CDT on June 22, 2017 (GMT -0500)
De Kalb Taylor Municipal

Weather History for KDKB - March, 2013

Change the Weather History Date:

Monday, March 25, 2013

  Actual Average (KARR) Record (KARR)
Temperature  
Mean Temperature 29 °F -  
Max Temperature 32 °F 50 °F 78 °F (2007)
Min Temperature 26 °F 30 °F 14 °F (2014)
Degree Days  
Heating Degree Days 36    
Moisture  
Dew Point 24 °F    
Average Humidity 79    
Maximum Humidity 83    
Minimum Humidity 73    
Precipitation  
Precipitation 0.00 in - - ()
Sea Level Pressure  
Sea Level Pressure 29.88 in    
Wind  
Wind Speed 15 mph (NNW)    
Max Wind Speed 23 mph    
Max Gust Speed 26 mph    
Visibility 10 miles    
Events Rain    
Averages and records for this station are not official NWS values.
T = Trace of Precipitation, MM = Missing Value Source: NWS Daily Summary

Daily Weather History Graph

Daily Weather History Graph

Search for Another Location

Airport or City:

Trip Planner

Search our weather history database for the weather conditions in past years. The results will help you decide how hot, cold, wet, or windy it might be!

Date:

Astronomy

Mar. 25, 2013 Rise Set
Actual Time 6:49 AM CDT 7:12 PM CDT
Civil Twilight 6:21 AM CDT 7:40 PM CDT
Nautical Twilight 5:48 AM CDT 8:13 PM CDT
Astronomical Twilight 5:14 AM CDT 8:47 PM CDT
Moon 5:43 PM CDT (3/25) 5:33 AM CDT (3/25)
Length of Visible Light 13h 19m
Length of Day
12h 23m
Waxing Gibbous, 96% of the Moon is Illuminated
Mar 25
Waxing Gibbous
Mar 27
Full
Apr 2
Last Quarter
Apr 10
New
Apr 18
First Quarter

Hourly Weather History & Observations

Time (CDT) Temp. Windchill Dew Point Humidity Pressure Visibility Wind Dir Wind Speed Gust Speed Precip Events Conditions
12:15 AM 29.3 °F 17.3 °F 23.7 °F 80% 29.73 in 10.0 mi North 17.3 mph 24.2 mph N/A   Overcast
12:35 AM 29.1 °F 17.9 °F 23.7 °F 80% 29.74 in 10.0 mi NNW 15.0 mph 19.6 mph N/A   Overcast
12:55 AM 29.1 °F 17.5 °F 23.5 °F 80% 29.74 in 10.0 mi North 16.1 mph - N/A   Overcast
1:15 AM 29.1 °F 17.9 °F 23.7 °F 80% 29.74 in 10.0 mi North 15.0 mph - N/A   Overcast
1:35 AM 29.1 °F 17.5 °F 23.5 °F 80% 29.74 in 10.0 mi North 16.1 mph 21.9 mph N/A   Overcast
1:55 AM 28.4 °F 18.5 °F 23.7 °F 83% 29.74 in 5.0 mi North 11.5 mph - N/A   Overcast
2:15 AM 28.8 °F 17.5 °F 23.5 °F 81% 29.74 in 10.0 mi North 15.0 mph - N/A   Overcast
2:35 AM 28.4 °F 17.5 °F 23.0 °F 80% 29.74 in 10.0 mi NNW 13.8 mph - N/A   Overcast
2:55 AM 28.4 °F 17.0 °F 23.0 °F 80% 29.74 in 10.0 mi NNW 15.0 mph 21.9 mph N/A   Overcast
3:15 AM 27.9 °F 15.1 °F 22.5 °F 80% 29.74 in 10.0 mi NNW 18.4 mph 23.0 mph N/A   Overcast
3:35 AM 27.9 °F 15.9 °F 22.3 °F 80% 29.73 in 10.0 mi NNW 16.1 mph 24.2 mph N/A   Overcast
3:55 AM 27.1 °F 14.5 °F 21.6 °F 80% 29.73 in 10.0 mi NNW 17.3 mph - N/A   Overcast
4:15 AM 27.0 °F 14.3 °F 21.2 °F 79% 29.73 in 10.0 mi North 17.3 mph 25.3 mph N/A   Overcast
4:35 AM 26.6 °F 13.4 °F 21.4 °F 81% 29.73 in 10.0 mi NNW 18.4 mph 24.2 mph N/A   Overcast
4:55 AM 26.6 °F 12.7 °F 21.4 °F 81% 29.74 in 10.0 mi NNW 20.7 mph 26.5 mph N/A   Overcast
5:15 AM 26.6 °F 13.8 °F 21.2 °F 80% 29.74 in 10.0 mi NNW 17.3 mph - N/A   Overcast
5:35 AM 26.4 °F 14.5 °F 21.7 °F 82% 29.74 in 10.0 mi NNW 15.0 mph 23.0 mph N/A   Overcast
5:55 AM 26.4 °F 13.2 °F 21.9 °F 83% 29.75 in 10.0 mi NNW 18.4 mph 24.2 mph N/A   Overcast
6:15 AM 26.6 °F 14.7 °F 22.1 °F 83% 29.76 in 10.0 mi NNW 15.0 mph 24.2 mph N/A   Overcast
6:35 AM 26.6 °F 13.8 °F 22.1 °F 83% 29.76 in 10.0 mi NNW 17.3 mph 23.0 mph N/A   Overcast
6:55 AM 26.6 °F 13.4 °F 22.1 °F 83% 29.77 in 10.0 mi NNW 18.4 mph 25.3 mph N/A   Overcast
7:15 AM 26.6 °F 15.2 °F 22.1 °F 83% 29.78 in 10.0 mi NNW 13.8 mph 24.2 mph N/A   Overcast
7:35 AM 26.4 °F 14.0 °F 21.9 °F 83% 29.78 in 10.0 mi NNW 16.1 mph 24.2 mph N/A   Overcast
7:55 AM 26.6 °F 13.8 °F 22.1 °F 83% 29.79 in 10.0 mi NNW 17.3 mph 26.5 mph N/A   Overcast
8:15 AM 26.8 °F 13.7 °F 22.3 °F 83% 29.80 in 10.0 mi NNW 18.4 mph 24.2 mph N/A   Overcast
8:35 AM 28.4 °F 17.0 °F 23.0 °F 80% 29.81 in 10.0 mi NNW 15.0 mph 23.0 mph N/A   Overcast
8:55 AM 27.9 °F 15.1 °F 23.2 °F 83% 29.81 in 10.0 mi NNW 18.4 mph - N/A   Overcast
9:15 AM 28.8 °F 17.0 °F 24.1 °F 83% 29.82 in 10.0 mi NNW 16.1 mph 25.3 mph N/A   Mostly Cloudy
9:35 AM 29.1 °F 17.9 °F 24.3 °F 82% 29.83 in 10.0 mi NNW 15.0 mph 25.3 mph N/A   Scattered Clouds
9:55 AM 29.8 °F 18.4 °F 25.0 °F 82% 29.84 in 10.0 mi NNW 16.1 mph 25.3 mph N/A   Scattered Clouds
10:15 AM 29.7 °F 18.2 °F 25.0 °F 83% 29.84 in 10.0 mi NNW 16.1 mph - N/A   Scattered Clouds
10:35 AM 30.2 °F 18.5 °F 25.5 °F 83% 29.86 in 10.0 mi NNW 17.3 mph 26.5 mph N/A   Light Freezing Rain
10:55 AM 31.5 °F 20.1 °F 26.6 °F 82% 29.86 in 10.0 mi NNW 17.3 mph 24.2 mph N/A   Overcast
11:15 AM 31.8 °F 21.0 °F 26.6 °F 81% 29.87 in 10.0 mi NNW 16.1 mph 26.5 mph N/A   Scattered Clouds
11:35 AM 32.7 °F 21.8 °F 27.1 °F 80% 29.87 in 10.0 mi NNW 17.3 mph - N/A   Clear
11:55 AM 32.2 °F 20.4 °F 26.4 °F 79% 29.88 in 10.0 mi NNW 19.6 mph 24.2 mph N/A   Mostly Cloudy
12:15 PM 31.8 °F 21.4 °F 26.4 °F 80% 29.88 in 10.0 mi NNW 15.0 mph 23.0 mph N/A   Overcast
12:35 PM 32.0 °F 20.8 °F 26.6 °F 80% 29.89 in 10.0 mi NNW 17.3 mph 25.3 mph N/A   Overcast
12:55 PM 32.0 °F 20.8 °F 26.6 °F 80% 29.89 in 10.0 mi NNW 17.3 mph 24.2 mph N/A   Overcast
1:15 PM 32.0 °F 20.5 °F 26.6 °F 80% 29.89 in 10.0 mi NNW 18.4 mph 24.2 mph N/A   Overcast
1:35 PM 32.0 °F 20.5 °F 26.2 °F 79% 29.90 in 10.0 mi NNW 18.4 mph 21.9 mph N/A   Overcast
1:55 PM 32.0 °F 21.6 °F 26.6 °F 80% 29.90 in 10.0 mi North 15.0 mph 25.3 mph N/A   Overcast
2:15 PM 32.0 °F 19.2 °F 26.8 °F 81% 29.90 in 10.0 mi North 23.0 mph 26.5 mph N/A   Overcast
2:35 PM 32.0 °F 21.6 °F 26.4 °F 80% 29.91 in 10.0 mi NNW 15.0 mph 25.3 mph N/A   Overcast
2:55 PM 32.7 °F 21.1 °F 26.8 °F 79% 29.91 in 10.0 mi NNW 19.6 mph 23.0 mph N/A   Overcast
3:15 PM 32.9 °F 22.4 °F 25.7 °F 75% 29.92 in 10.0 mi NNW 16.1 mph 24.2 mph N/A   Overcast
3:35 PM 32.5 °F 20.8 °F 25.7 °F 76% 29.93 in 10.0 mi NNW 19.6 mph - N/A   Overcast
3:55 PM 32.9 °F 21.6 °F 25.3 °F 74% 29.94 in 10.0 mi NNW 18.4 mph 23.0 mph N/A   Overcast
4:15 PM 32.2 °F 21.8 °F 25.3 °F 76% 29.94 in 10.0 mi NNW 15.0 mph - N/A Rain Light Rain
4:35 PM 32.0 °F 20.1 °F 24.4 °F 74% 29.96 in 10.0 mi NNW 19.6 mph 25.3 mph N/A   Overcast
4:55 PM 32.0 °F 20.8 °F 24.3 °F 73% 29.96 in 10.0 mi North 17.3 mph 26.5 mph N/A   Overcast
5:15 PM 32.0 °F 22.1 °F 24.1 °F 73% 29.97 in 10.0 mi NNW 13.8 mph 25.3 mph N/A   Overcast
5:35 PM 31.8 °F 20.6 °F 24.4 °F 74% 29.98 in 10.0 mi North 17.3 mph 21.9 mph N/A   Overcast
5:55 PM 31.1 °F 18.9 °F 24.1 °F 75% 29.99 in 10.0 mi NNW 19.6 mph 24.2 mph N/A   Overcast
6:15 PM 30.9 °F 20.2 °F 24.4 °F 77% 30.01 in 10.0 mi NNW 15.0 mph - N/A   Overcast
6:35 PM 30.9 °F 20.7 °F 24.6 °F 77% 30.01 in 10.0 mi NNW 13.8 mph - N/A   Overcast
6:55 PM 30.9 °F 21.7 °F 24.4 °F 77% 30.02 in 10.0 mi NNW 11.5 mph - N/A   Overcast
7:15 PM 30.9 °F 21.7 °F 24.6 °F 77% 30.03 in 10.0 mi NNW 11.5 mph - N/A   Overcast
7:35 PM 30.9 °F 22.2 °F 24.4 °F 77% 30.04 in 10.0 mi NNW 10.4 mph - N/A   Overcast
7:55 PM 31.1 °F 22.4 °F 24.6 °F 77% 30.04 in 10.0 mi NNW 10.4 mph - N/A   Overcast
8:15 PM 31.1 °F 23.7 °F 24.4 °F 76% 30.05 in 10.0 mi NW 8.1 mph - N/A   Overcast
8:35 PM 31.3 °F 24.7 °F 24.4 °F 76% 30.05 in 10.0 mi NW 6.9 mph - N/A   Overcast
8:55 PM 31.1 °F 25.4 °F 24.6 °F 77% 30.06 in 10.0 mi NW 5.8 mph - N/A   Overcast
9:15 PM 31.1 °F 24.5 °F 25.2 °F 79% 30.06 in 10.0 mi WNW 6.9 mph - N/A   Overcast
9:35 PM 31.3 °F 23.9 °F 24.8 °F 77% 30.07 in 10.0 mi NW 8.1 mph - N/A   Overcast
9:55 PM 31.5 °F 24.2 °F 24.8 °F 76% 30.07 in 10.0 mi NW 8.1 mph - N/A   Overcast
10:15 PM 31.1 °F 24.5 °F 24.8 °F 77% 30.07 in 10.0 mi NW 6.9 mph - N/A   Overcast
10:35 PM 31.1 °F 26.4 °F 25.2 °F 79% 30.07 in 10.0 mi NW 4.6 mph - N/A   Overcast
10:55 PM 31.1 °F 26.4 °F 25.2 °F 79% 30.07 in 10.0 mi NW 4.6 mph - N/A   Overcast
11:15 PM 31.1 °F 25.4 °F 25.2 °F 79% 30.08 in 10.0 mi NW 5.8 mph - N/A   Overcast
11:35 PM 31.1 °F 24.5 °F 25.3 °F 79% 30.08 in 10.0 mi WNW 6.9 mph - N/A   Overcast
11:55 PM 31.1 °F 24.5 °F 25.5 °F 80% 30.08 in 10.0 mi NW 6.9 mph - N/A   Overcast